Year,Month,Day,Hour,Minute,Value (Times are PST for temperature in C)
2006,09,29,00,00,12.40
2006,09,29,00,01,12.40
2006,09,29,00,02,12.30
2006,09,29,00,03,12.30
2006,09,29,00,04,12.30
2006,09,29,00,05,12.30
2006,09,29,00,06,12.30
2006,09,29,00,07,12.30
2006,09,29,00,08,12.30
2006,09,29,00,09,12.30
2006,09,29,00,10,12.20
2006,09,29,00,11,12.20
2006,09,29,00,12,12.20
2006,09,29,00,13,12.20
2006,09,29,00,14,12.20
2006,09,29,00,15,12.20
2006,09,29,00,16,12.20
2006,09,29,00,17,12.20
2006,09,29,00,18,12.20
2006,09,29,00,19,12.20
2006,09,29,00,20,12.20
2006,09,29,00,21,12.20
2006,09,29,00,22,12.30
2006,09,29,00,23,12.30
2006,09,29,00,24,12.30
2006,09,29,00,25,12.30
2006,09,29,00,26,12.30
2006,09,29,00,27,12.30
2006,09,29,00,28,12.30
2006,09,29,00,29,12.20
2006,09,29,00,30,12.20
2006,09,29,00,31,12.20
2006,09,29,00,32,12.20
2006,09,29,00,33,12.20
2006,09,29,00,34,12.10
2006,09,29,00,35,12.10
2006,09,29,00,36,12.10
2006,09,29,00,37,12.20
2006,09,29,00,38,12.20
2006,09,29,00,39,12.20
2006,09,29,00,40,12.20
2006,09,29,00,41,12.10
2006,09,29,00,42,12.10
2006,09,29,00,43,12.10
2006,09,29,00,44,12.10
2006,09,29,00,45,12.10
2006,09,29,00,46,12.10
2006,09,29,00,47,12.20
2006,09,29,00,48,12.20
2006,09,29,00,49,12.20
2006,09,29,00,50,12.30
2006,09,29,00,51,12.30
2006,09,29,00,52,12.30
2006,09,29,00,53,12.30
2006,09,29,00,54,12.30
2006,09,29,00,55,12.30
2006,09,29,00,56,12.30
2006,09,29,00,57,12.30
2006,09,29,00,58,12.30
2006,09,29,00,59,12.30
2006,09,29,01,00,12.30
2006,09,29,01,01,12.30
2006,09,29,01,02,12.30
2006,09,29,01,03,12.30
2006,09,29,01,04,12.20
2006,09,29,01,05,12.20
2006,09,29,01,06,12.20
2006,09,29,01,07,12.20
2006,09,29,01,08,12.20
2006,09,29,01,09,12.20
2006,09,29,01,10,12.20
2006,09,29,01,11,12.20
2006,09,29,01,12,12.20
2006,09,29,01,13,12.20
2006,09,29,01,14,12.10
2006,09,29,01,15,12.10
2006,09,29,01,16,12.10
2006,09,29,01,17,12.10
2006,09,29,01,18,12.10
2006,09,29,01,19,12.10
2006,09,29,01,20,12.10
2006,09,29,01,21,12.10
2006,09,29,01,22,12.10
2006,09,29,01,23,12.10
2006,09,29,01,24,12.10
2006,09,29,01,25,12.10
2006,09,29,01,26,12.10
2006,09,29,01,27,12.20
2006,09,29,01,28,12.20
2006,09,29,01,29,12.20
2006,09,29,01,30,12.20
2006,09,29,01,31,12.20
2006,09,29,01,32,12.20
2006,09,29,01,33,12.20
2006,09,29,01,34,12.10
2006,09,29,01,35,12.10
2006,09,29,01,36,12.10
2006,09,29,01,37,12.10
2006,09,29,01,38,12.10
2006,09,29,01,39,12.00
2006,09,29,01,40,12.00
2006,09,29,01,41,12.00
2006,09,29,01,42,12.00
2006,09,29,01,43,11.90
2006,09,29,01,44,11.90
2006,09,29,01,45,11.90
2006,09,29,01,46,11.90
2006,09,29,01,47,11.80
2006,09,29,01,48,11.80
2006,09,29,01,49,11.80
2006,09,29,01,50,11.80
2006,09,29,01,51,11.80
2006,09,29,01,52,11.80
2006,09,29,01,53,11.80
2006,09,29,01,54,11.80
2006,09,29,01,55,11.80
2006,09,29,01,56,11.80
2006,09,29,01,57,11.80
2006,09,29,01,58,11.80
2006,09,29,01,59,11.90
2006,09,29,02,00,11.90
2006,09,29,02,01,11.90
2006,09,29,02,02,11.90
2006,09,29,02,03,11.90
2006,09,29,02,04,11.90
2006,09,29,02,05,11.90
2006,09,29,02,06,11.80
2006,09,29,02,07,11.80
2006,09,29,02,08,11.80
2006,09,29,02,09,11.80
2006,09,29,02,10,11.80
2006,09,29,02,11,11.80
2006,09,29,02,12,11.80
2006,09,29,02,13,11.80
2006,09,29,02,14,11.70
2006,09,29,02,15,11.70
2006,09,29,02,16,11.70
2006,09,29,02,17,11.60
2006,09,29,02,18,11.60
2006,09,29,02,19,11.60
2006,09,29,02,20,11.60
2006,09,29,02,21,11.60
2006,09,29,02,22,11.60
2006,09,29,02,23,11.60
2006,09,29,02,24,11.60
2006,09,29,02,25,11.60
2006,09,29,02,26,11.60
2006,09,29,02,27,11.60
2006,09,29,02,28,11.60
2006,09,29,02,29,11.60
2006,09,29,02,30,11.50
2006,09,29,02,31,11.40
2006,09,29,02,32,11.40
2006,09,29,02,33,11.40
2006,09,29,02,34,11.40
2006,09,29,02,35,11.40
2006,09,29,02,36,11.40
2006,09,29,02,37,11.40
2006,09,29,02,38,11.40
2006,09,29,02,39,11.40
2006,09,29,02,40,11.50
2006,09,29,02,41,11.40
2006,09,29,02,42,11.40
2006,09,29,02,43,11.50
2006,09,29,02,44,11.60
2006,09,29,02,45,11.60
2006,09,29,02,46,11.60
2006,09,29,02,47,11.60
2006,09,29,02,48,11.60
2006,09,29,02,49,11.60
2006,09,29,02,50,11.50
2006,09,29,02,51,11.40
2006,09,29,02,52,11.40
2006,09,29,02,53,11.40
2006,09,29,02,54,11.40
2006,09,29,02,55,11.40
2006,09,29,02,56,11.40
2006,09,29,02,57,11.40
2006,09,29,02,58,11.40
2006,09,29,02,59,11.40
2006,09,29,03,00,11.40
2006,09,29,03,01,11.40
2006,09,29,03,02,11.40
2006,09,29,03,03,11.40
2006,09,29,03,04,11.40
2006,09,29,03,05,11.40
2006,09,29,03,06,11.40
2006,09,29,03,07,11.40
2006,09,29,03,08,11.40
2006,09,29,03,09,11.40
2006,09,29,03,10,11.40
2006,09,29,03,11,11.40
2006,09,29,03,12,11.40
2006,09,29,03,13,11.40
2006,09,29,03,14,11.30
2006,09,29,03,15,11.30
2006,09,29,03,16,11.30
2006,09,29,03,17,11.30
2006,09,29,03,18,11.30
2006,09,29,03,19,11.40
2006,09,29,03,20,11.40
2006,09,29,03,21,11.40
2006,09,29,03,22,11.40
2006,09,29,03,23,11.40
2006,09,29,03,24,11.40
2006,09,29,03,25,11.40
2006,09,29,03,26,11.40
2006,09,29,03,27,11.40
2006,09,29,03,28,11.40
2006,09,29,03,29,11.40
2006,09,29,03,30,11.40
2006,09,29,03,31,11.40
2006,09,29,03,32,11.40
2006,09,29,03,33,11.40
2006,09,29,03,34,11.60
2006,09,29,03,35,11.60
2006,09,29,03,36,11.60
2006,09,29,03,37,11.60
2006,09,29,03,38,11.50
2006,09,29,03,39,11.40
2006,09,29,03,40,11.40
2006,09,29,03,41,11.40
2006,09,29,03,42,11.40
2006,09,29,03,43,11.40
2006,09,29,03,44,11.40
2006,09,29,03,45,11.40
2006,09,29,03,46,11.40
2006,09,29,03,47,11.40
2006,09,29,03,48,11.40
2006,09,29,03,49,11.40
2006,09,29,03,50,11.30
2006,09,29,03,51,11.30
2006,09,29,03,52,11.30
2006,09,29,03,53,11.30
2006,09,29,03,54,11.20
2006,09,29,03,55,11.20
2006,09,29,03,56,11.20
2006,09,29,03,57,11.20
2006,09,29,03,58,11.20
2006,09,29,03,59,11.20
2006,09,29,04,00,11.20
2006,09,29,04,01,11.10
2006,09,29,04,02,11.10
2006,09,29,04,03,11.10
2006,09,29,04,04,11.10
2006,09,29,04,05,11.10
2006,09,29,04,06,11.10
2006,09,29,04,07,11.00
2006,09,29,04,08,10.90
2006,09,29,04,09,10.90
2006,09,29,04,10,10.90
2006,09,29,04,11,10.90
2006,09,29,04,12,10.90
2006,09,29,04,13,10.80
2006,09,29,04,14,10.80
2006,09,29,04,15,10.80
2006,09,29,04,16,10.80
2006,09,29,04,17,10.80
2006,09,29,04,18,10.80
2006,09,29,04,19,10.70
2006,09,29,04,20,10.70
2006,09,29,04,21,10.70
2006,09,29,04,22,10.70
2006,09,29,04,23,10.70
2006,09,29,04,24,10.60
2006,09,29,04,25,10.60
2006,09,29,04,26,10.60
2006,09,29,04,27,10.60
2006,09,29,04,28,10.60
2006,09,29,04,29,10.60
2006,09,29,04,30,10.60
2006,09,29,04,31,10.60
2006,09,29,04,32,10.60
2006,09,29,04,33,10.60
2006,09,29,04,34,10.60
2006,09,29,04,35,10.60
2006,09,29,04,36,10.60
2006,09,29,04,37,10.60
2006,09,29,04,38,10.60
2006,09,29,04,39,10.60
2006,09,29,04,40,10.60
2006,09,29,04,41,10.60
2006,09,29,04,42,10.60
2006,09,29,04,43,10.60
2006,09,29,04,44,10.60
2006,09,29,04,45,10.60
2006,09,29,04,46,10.60
2006,09,29,04,47,10.60
2006,09,29,04,48,10.60
2006,09,29,04,49,10.60
2006,09,29,04,50,10.60
2006,09,29,04,51,10.60
2006,09,29,04,52,10.50
2006,09,29,04,53,10.40
2006,09,29,04,54,10.40
2006,09,29,04,55,10.40
2006,09,29,04,56,10.40
2006,09,29,04,57,10.40
2006,09,29,04,58,10.40
2006,09,29,04,59,10.40
2006,09,29,05,00,10.40
2006,09,29,05,01,10.40
2006,09,29,05,02,10.40
2006,09,29,05,03,10.40
2006,09,29,05,04,10.40
2006,09,29,05,05,10.30
2006,09,29,05,06,10.30
2006,09,29,05,07,10.30
2006,09,29,05,08,10.30
2006,09,29,05,09,10.30
2006,09,29,05,10,10.30
2006,09,29,05,11,10.30
2006,09,29,05,12,10.30
2006,09,29,05,13,10.30
2006,09,29,05,14,10.30
2006,09,29,05,15,10.30
2006,09,29,05,16,10.30
2006,09,29,05,17,10.30
2006,09,29,05,18,10.30
2006,09,29,05,19,10.30
2006,09,29,05,20,10.20
2006,09,29,05,21,10.20
2006,09,29,05,22,10.20
2006,09,29,05,23,10.20
2006,09,29,05,24,10.20
2006,09,29,05,25,10.20
2006,09,29,05,26,10.20
2006,09,29,05,27,10.20
2006,09,29,05,28,10.20
2006,09,29,05,29,10.20
2006,09,29,05,30,10.20
2006,09,29,05,31,10.20
2006,09,29,05,32,10.20
2006,09,29,05,33,10.20
2006,09,29,05,34,10.20
2006,09,29,05,35,10.20
2006,09,29,05,36,10.20
2006,09,29,05,37,10.30
2006,09,29,05,38,10.30
2006,09,29,05,39,10.30
2006,09,29,05,40,10.30
2006,09,29,05,41,10.30
2006,09,29,05,42,10.30
2006,09,29,05,43,10.30
2006,09,29,05,44,10.30
2006,09,29,05,45,10.30
2006,09,29,05,46,10.30
2006,09,29,05,47,10.30
2006,09,29,05,48,10.30
2006,09,29,05,49,10.30
2006,09,29,05,50,10.30
2006,09,29,05,51,10.30
2006,09,29,05,52,10.30
2006,09,29,05,53,10.30
2006,09,29,05,54,10.30
2006,09,29,05,55,10.30
2006,09,29,05,56,10.20
2006,09,29,05,57,10.20
2006,09,29,05,58,10.20
2006,09,29,05,59,10.20
2006,09,29,06,00,10.20
2006,09,29,06,01,10.20
2006,09,29,06,02,10.10
2006,09,29,06,03,10.10
2006,09,29,06,04,10.10
2006,09,29,06,05,10.20
2006,09,29,06,06,10.20
2006,09,29,06,07,10.20
2006,09,29,06,08,10.20
2006,09,29,06,09,10.20
2006,09,29,06,10,10.30
2006,09,29,06,11,10.30
2006,09,29,06,12,10.30
2006,09,29,06,13,10.30
2006,09,29,06,14,10.30
2006,09,29,06,15,10.30
2006,09,29,06,16,10.30
2006,09,29,06,17,10.30
2006,09,29,06,18,10.30
2006,09,29,06,19,10.30
2006,09,29,06,20,10.30
2006,09,29,06,21,10.30
2006,09,29,06,22,10.30
2006,09,29,06,23,10.30
2006,09,29,06,24,10.30
2006,09,29,06,25,10.40
2006,09,29,06,26,10.40
2006,09,29,06,27,10.40
2006,09,29,06,28,10.40
2006,09,29,06,29,10.40
2006,09,29,06,30,10.40
2006,09,29,06,31,10.40
2006,09,29,06,32,10.40
2006,09,29,06,33,10.40
2006,09,29,06,34,10.40
2006,09,29,06,35,10.40
2006,09,29,06,36,10.40
2006,09,29,06,37,10.30
2006,09,29,06,38,10.30
2006,09,29,06,39,10.30
2006,09,29,06,40,10.30
2006,09,29,06,41,10.30
2006,09,29,06,42,10.30
2006,09,29,06,43,10.20
2006,09,29,06,44,10.20
2006,09,29,06,45,10.20
2006,09,29,06,46,10.20
2006,09,29,06,47,10.20
2006,09,29,06,48,10.20
2006,09,29,06,49,10.20
2006,09,29,06,50,10.10
2006,09,29,06,51,10.10
2006,09,29,06,52,10.10
2006,09,29,06,53,10.10
2006,09,29,06,54,10.10
2006,09,29,06,55,10.10
2006,09,29,06,56,10.10
2006,09,29,06,57,10.10
2006,09,29,06,58,10.10
2006,09,29,06,59,10.10
2006,09,29,07,00,10.10
2006,09,29,07,01,10.00
2006,09,29,07,02,9.90
2006,09,29,07,03,9.90
2006,09,29,07,04,9.90
2006,09,29,07,05,9.90
2006,09,29,07,06,9.90
2006,09,29,07,07,9.90
2006,09,29,07,08,9.90
2006,09,29,07,09,9.90
2006,09,29,07,10,9.90
2006,09,29,07,11,9.90
2006,09,29,07,12,9.80
2006,09,29,07,13,9.80
2006,09,29,07,14,9.80
2006,09,29,07,15,9.80
2006,09,29,07,16,9.70
2006,09,29,07,17,9.70
2006,09,29,07,18,9.70
2006,09,29,07,19,9.70
2006,09,29,07,20,9.70
2006,09,29,07,21,9.70
2006,09,29,07,22,9.70
2006,09,29,07,23,9.80
2006,09,29,07,24,9.80
2006,09,29,07,25,9.80
2006,09,29,07,26,9.90
2006,09,29,07,27,9.90
2006,09,29,07,28,9.90
2006,09,29,07,29,9.90
2006,09,29,07,30,9.90
2006,09,29,07,31,9.90
2006,09,29,07,32,9.90
2006,09,29,07,33,9.90
2006,09,29,07,34,9.90
2006,09,29,07,35,9.90
2006,09,29,07,36,9.90
2006,09,29,07,37,9.90
2006,09,29,07,38,9.90
2006,09,29,07,39,9.90
2006,09,29,07,40,9.90
2006,09,29,07,41,9.90
2006,09,29,07,42,9.90
2006,09,29,07,43,9.90
2006,09,29,07,44,9.90
2006,09,29,07,45,9.90
2006,09,29,07,46,9.90
2006,09,29,07,47,9.90
2006,09,29,07,48,9.90
2006,09,29,07,49,9.90
2006,09,29,07,50,9.90
2006,09,29,07,51,9.80
2006,09,29,07,52,9.80
2006,09,29,07,53,9.80
2006,09,29,07,54,9.80
2006,09,29,07,55,9.80
2006,09,29,07,56,9.90
2006,09,29,07,57,9.90
2006,09,29,07,58,9.90
2006,09,29,07,59,9.90
2006,09,29,08,00,9.90
2006,09,29,08,01,9.90
2006,09,29,08,02,9.90
2006,09,29,08,03,9.90
2006,09,29,08,04,9.90
2006,09,29,08,05,9.90
2006,09,29,08,06,10.00
2006,09,29,08,07,10.10
2006,09,29,08,08,10.10
2006,09,29,08,09,10.10
2006,09,29,08,10,10.10
2006,09,29,08,11,10.10
2006,09,29,08,12,10.10
2006,09,29,08,13,10.10
2006,09,29,08,14,10.10
2006,09,29,08,15,10.10
2006,09,29,08,16,10.20
2006,09,29,08,17,10.20
2006,09,29,08,18,10.20
2006,09,29,08,19,10.20
2006,09,29,08,20,10.30
2006,09,29,08,21,10.30
2006,09,29,08,22,10.40
2006,09,29,08,23,10.40
2006,09,29,08,24,10.40
2006,09,29,08,25,10.40
2006,09,29,08,26,10.60
2006,09,29,08,27,10.60
2006,09,29,08,28,10.60
2006,09,29,08,29,10.60
2006,09,29,08,30,10.60
2006,09,29,08,31,10.60
2006,09,29,08,32,10.60
2006,09,29,08,33,10.70
2006,09,29,08,34,10.70
2006,09,29,08,35,10.70
2006,09,29,08,36,10.70
2006,09,29,08,37,10.80
2006,09,29,08,38,10.80
2006,09,29,08,39,10.80
2006,09,29,08,40,10.80
2006,09,29,08,41,10.90
2006,09,29,08,42,10.90
2006,09,29,08,43,10.90
2006,09,29,08,44,10.90
2006,09,29,08,45,10.90
2006,09,29,08,46,11.00
2006,09,29,08,47,11.10
2006,09,29,08,48,11.10
2006,09,29,08,49,11.10
2006,09,29,08,50,11.10
2006,09,29,08,51,11.20
2006,09,29,08,52,11.20
2006,09,29,08,53,11.30
2006,09,29,08,54,11.40
2006,09,29,08,55,11.40
2006,09,29,08,56,11.50
2006,09,29,08,57,11.60
2006,09,29,08,58,11.60
2006,09,29,08,59,11.70
2006,09,29,09,00,11.80
2006,09,29,09,01,11.90
2006,09,29,09,02,12.00
2006,09,29,09,03,12.00
2006,09,29,09,04,12.10
2006,09,29,09,05,12.20
2006,09,29,09,06,12.30
2006,09,29,09,07,12.40
2006,09,29,09,08,12.50
2006,09,29,09,09,12.50
2006,09,29,09,10,12.60
2006,09,29,09,11,12.80
2006,09,29,09,12,12.90
2006,09,29,09,13,13.10
2006,09,29,09,14,13.30
2006,09,29,09,15,13.50
2006,09,29,09,16,13.50
2006,09,29,09,17,13.60
2006,09,29,09,18,13.60
2006,09,29,09,19,13.70
2006,09,29,09,20,13.80
2006,09,29,09,21,13.90
2006,09,29,09,22,14.00
2006,09,29,09,23,14.00
2006,09,29,09,24,14.00
2006,09,29,09,25,14.10
2006,09,29,09,26,14.10
2006,09,29,09,27,14.20
2006,09,29,09,28,14.20
2006,09,29,09,29,14.20
2006,09,29,09,30,14.20
2006,09,29,09,31,14.30
2006,09,29,09,32,14.40
2006,09,29,09,33,14.40
2006,09,29,09,34,14.50
2006,09,29,09,35,14.50
2006,09,29,09,36,14.60
2006,09,29,09,37,14.60
2006,09,29,09,38,14.70
2006,09,29,09,39,14.70
2006,09,29,09,40,14.70
2006,09,29,09,41,14.80
2006,09,29,09,42,14.80
2006,09,29,09,43,14.80
2006,09,29,09,44,14.80
2006,09,29,09,45,14.90
2006,09,29,09,46,15.00
2006,09,29,09,47,15.10
2006,09,29,09,48,15.10
2006,09,29,09,49,15.20
2006,09,29,09,50,15.30
2006,09,29,09,51,15.30
2006,09,29,09,52,15.40
2006,09,29,09,53,15.50
2006,09,29,09,54,15.50
2006,09,29,09,55,15.60
2006,09,29,09,56,15.70
2006,09,29,09,57,15.70
2006,09,29,09,58,15.80
2006,09,29,09,59,15.80
2006,09,29,10,00,15.90
2006,09,29,10,01,16.00
2006,09,29,10,02,16.10
2006,09,29,10,03,16.10
2006,09,29,10,04,16.10
2006,09,29,10,05,16.20
2006,09,29,10,06,16.20
2006,09,29,10,07,16.30
2006,09,29,10,08,16.30
2006,09,29,10,09,16.30
2006,09,29,10,10,16.40
2006,09,29,10,11,16.40
2006,09,29,10,12,16.40
2006,09,29,10,13,16.40
2006,09,29,10,14,16.40
2006,09,29,10,15,16.40
2006,09,29,10,16,16.40
2006,09,29,10,17,16.50
2006,09,29,10,18,16.60
2006,09,29,10,19,16.60
2006,09,29,10,20,16.60
2006,09,29,10,21,16.60
2006,09,29,10,22,16.70
2006,09,29,10,23,16.70
2006,09,29,10,24,16.90
2006,09,29,10,25,17.00
2006,09,29,10,26,17.00
2006,09,29,10,27,17.10
2006,09,29,10,28,17.20
2006,09,29,10,29,17.30
2006,09,29,10,30,17.40
2006,09,29,10,31,17.50
2006,09,29,10,32,17.50
2006,09,29,10,33,17.50
2006,09,29,10,34,17.60
2006,09,29,10,35,17.60
2006,09,29,10,36,17.60
2006,09,29,10,37,17.60
2006,09,29,10,38,17.70
2006,09,29,10,39,17.70
2006,09,29,10,40,17.70
2006,09,29,10,41,17.70
2006,09,29,10,42,17.70
2006,09,29,10,43,17.70
2006,09,29,10,44,17.80
2006,09,29,10,45,17.90
2006,09,29,10,46,17.90
2006,09,29,10,47,18.00
2006,09,29,10,48,18.10
2006,09,29,10,49,18.20
2006,09,29,10,50,18.20
2006,09,29,10,51,18.20
2006,09,29,10,52,18.30
2006,09,29,10,53,18.30
2006,09,29,10,54,18.30
2006,09,29,10,55,18.40
2006,09,29,10,56,18.50
2006,09,29,10,57,18.50
2006,09,29,10,58,18.60
2006,09,29,10,59,18.70
2006,09,29,11,00,18.80
2006,09,29,11,01,18.90
2006,09,29,11,02,18.80
2006,09,29,11,03,18.80
2006,09,29,11,04,18.80
2006,09,29,11,05,18.70
2006,09,29,11,06,18.70
2006,09,29,11,07,18.60
2006,09,29,11,08,18.50
2006,09,29,11,09,18.50
2006,09,29,11,10,18.40
2006,09,29,11,11,18.40
2006,09,29,11,12,18.40
2006,09,29,11,13,18.50
2006,09,29,11,14,18.50
2006,09,29,11,15,18.50
2006,09,29,11,16,18.50
2006,09,29,11,17,18.30
2006,09,29,11,18,18.10
2006,09,29,11,19,18.10
2006,09,29,11,20,17.90
2006,09,29,11,21,17.90
2006,09,29,11,22,17.90
2006,09,29,11,23,17.80
2006,09,29,11,24,17.70
2006,09,29,11,25,17.70
2006,09,29,11,26,17.80
2006,09,29,11,27,17.80
2006,09,29,11,28,17.90
2006,09,29,11,29,17.90
2006,09,29,11,30,17.90
2006,09,29,11,31,17.90
2006,09,29,11,32,17.90
2006,09,29,11,33,18.00
2006,09,29,11,34,18.10
2006,09,29,11,35,18.10
2006,09,29,11,36,17.90
2006,09,29,11,37,17.90
2006,09,29,11,38,17.80
2006,09,29,11,39,17.80
2006,09,29,11,40,17.80
2006,09,29,11,41,17.70
2006,09,29,11,42,17.60
2006,09,29,11,43,17.60
2006,09,29,11,44,17.60
2006,09,29,11,45,17.60
2006,09,29,11,46,17.50
2006,09,29,11,47,17.40
2006,09,29,11,48,17.30
2006,09,29,11,49,17.40
2006,09,29,11,50,17.40
2006,09,29,11,51,17.50
2006,09,29,11,52,17.50
2006,09,29,11,53,17.50
2006,09,29,11,54,17.50
2006,09,29,11,55,17.50
2006,09,29,11,56,17.50
2006,09,29,11,57,17.50
2006,09,29,11,58,17.50
2006,09,29,11,59,17.50
2006,09,29,12,00,17.40
2006,09,29,12,01,17.40
2006,09,29,12,02,17.30
2006,09,29,12,03,17.30
2006,09,29,12,04,17.30
2006,09,29,12,05,17.20
2006,09,29,12,06,17.20
2006,09,29,12,07,17.30
2006,09,29,12,08,17.30
2006,09,29,12,09,17.30
2006,09,29,12,10,17.30
2006,09,29,12,11,17.30
2006,09,29,12,12,17.40
2006,09,29,12,13,17.50
2006,09,29,12,14,17.50
2006,09,29,12,15,17.50
2006,09,29,12,16,17.40
2006,09,29,12,17,17.50
2006,09,29,12,18,17.50
2006,09,29,12,19,17.60
2006,09,29,12,20,17.70
2006,09,29,12,21,17.70
2006,09,29,12,22,17.70
2006,09,29,12,23,17.70
2006,09,29,12,24,17.80
2006,09,29,12,25,17.80
2006,09,29,12,26,17.80
2006,09,29,12,27,17.90
2006,09,29,12,28,17.90
2006,09,29,12,29,18.00
2006,09,29,12,30,18.10
2006,09,29,12,31,18.00
2006,09,29,12,32,17.90
2006,09,29,12,33,17.80
2006,09,29,12,34,17.70
2006,09,29,12,35,17.70
2006,09,29,12,36,17.60
2006,09,29,12,37,17.50
2006,09,29,12,38,17.50
2006,09,29,12,39,17.50
2006,09,29,12,40,17.50
2006,09,29,12,41,17.60
2006,09,29,12,42,17.50
2006,09,29,12,43,17.50
2006,09,29,12,44,17.50
2006,09,29,12,45,17.50
2006,09,29,12,46,17.50
2006,09,29,12,47,17.50
2006,09,29,12,48,17.60
2006,09,29,12,49,17.70
2006,09,29,12,50,17.80
2006,09,29,12,51,17.80
2006,09,29,12,52,17.90
2006,09,29,12,53,17.90
2006,09,29,12,54,18.00
2006,09,29,12,55,18.10
2006,09,29,12,56,18.00
2006,09,29,12,57,17.90
2006,09,29,12,58,17.90
2006,09,29,12,59,17.90
2006,09,29,13,00,17.90
2006,09,29,13,01,17.80
2006,09,29,13,02,17.80
2006,09,29,13,03,17.80
2006,09,29,13,04,17.80
2006,09,29,13,05,17.80
2006,09,29,13,06,17.90
2006,09,29,13,07,17.90
2006,09,29,13,08,17.90
2006,09,29,13,09,17.90
2006,09,29,13,10,17.90
2006,09,29,13,11,17.80
2006,09,29,13,12,17.70
2006,09,29,13,13,17.70
2006,09,29,13,14,17.70
2006,09,29,13,15,17.70
2006,09,29,13,16,17.70
2006,09,29,13,17,17.80
2006,09,29,13,18,17.90
2006,09,29,13,19,17.90
2006,09,29,13,20,18.00
2006,09,29,13,21,18.00
2006,09,29,13,22,17.90
2006,09,29,13,23,17.90
2006,09,29,13,24,17.80
2006,09,29,13,25,17.90
2006,09,29,13,26,17.90
2006,09,29,13,27,17.90
2006,09,29,13,28,17.90
2006,09,29,13,29,17.90
2006,09,29,13,30,17.80
2006,09,29,13,31,17.80
2006,09,29,13,32,17.80
2006,09,29,13,33,17.80
2006,09,29,13,34,17.70
2006,09,29,13,35,17.70
2006,09,29,13,36,17.60
2006,09,29,13,37,17.50
2006,09,29,13,38,17.50
2006,09,29,13,39,17.60
2006,09,29,13,40,17.60
2006,09,29,13,41,17.70
2006,09,29,13,42,17.80
2006,09,29,13,43,17.80
2006,09,29,13,44,17.90
2006,09,29,13,45,17.90
2006,09,29,13,46,17.90
2006,09,29,13,47,17.90
2006,09,29,13,48,17.90
2006,09,29,13,49,17.90
2006,09,29,13,50,17.90
2006,09,29,13,51,17.80
2006,09,29,13,52,17.70
2006,09,29,13,53,17.60
2006,09,29,13,54,17.50
2006,09,29,13,55,17.50
2006,09,29,13,56,17.40
2006,09,29,13,57,17.30
2006,09,29,13,58,17.30
2006,09,29,13,59,17.30
2006,09,29,14,00,17.30
2006,09,29,14,01,17.40
2006,09,29,14,02,17.40
2006,09,29,14,03,17.40
2006,09,29,14,04,17.40
2006,09,29,14,05,17.40
2006,09,29,14,06,17.40
2006,09,29,14,07,17.50
2006,09,29,14,08,17.50
2006,09,29,14,09,17.60
2006,09,29,14,10,17.60
2006,09,29,14,11,17.70
2006,09,29,14,12,17.70
2006,09,29,14,13,17.80
2006,09,29,14,14,17.80
2006,09,29,14,15,17.80
2006,09,29,14,16,17.80
2006,09,29,14,17,17.70
2006,09,29,14,18,17.70
2006,09,29,14,19,17.80
2006,09,29,14,20,17.80
2006,09,29,14,21,17.80
2006,09,29,14,22,17.80
2006,09,29,14,23,17.80
2006,09,29,14,24,17.80
2006,09,29,14,25,17.70
2006,09,29,14,26,17.70
2006,09,29,14,27,17.60
2006,09,29,14,28,17.60
2006,09,29,14,29,17.60
2006,09,29,14,30,17.70
2006,09,29,14,31,17.70
2006,09,29,14,32,17.70
2006,09,29,14,33,17.70
2006,09,29,14,34,17.60
2006,09,29,14,35,17.50
2006,09,29,14,36,17.50
2006,09,29,14,37,17.50
2006,09,29,14,38,17.50
2006,09,29,14,39,17.60
2006,09,29,14,40,17.60
2006,09,29,14,41,17.60
2006,09,29,14,42,17.70
2006,09,29,14,43,17.70
2006,09,29,14,44,17.80
2006,09,29,14,45,17.80
2006,09,29,14,46,17.80
2006,09,29,14,47,17.80
2006,09,29,14,48,17.90
2006,09,29,14,49,17.90
2006,09,29,14,50,17.90
2006,09,29,14,51,17.90
2006,09,29,14,52,17.90
2006,09,29,14,53,17.90
2006,09,29,14,54,18.00
2006,09,29,14,55,18.10
2006,09,29,14,56,18.10
2006,09,29,14,57,18.20
2006,09,29,14,58,18.20
2006,09,29,14,59,18.20
2006,09,29,15,00,18.20
2006,09,29,15,01,18.20
2006,09,29,15,02,18.20
2006,09,29,15,03,18.20
2006,09,29,15,04,18.20
2006,09,29,15,05,18.20
2006,09,29,15,06,18.20
2006,09,29,15,07,18.20
2006,09,29,15,08,18.30
2006,09,29,15,09,18.40
2006,09,29,15,10,18.40
2006,09,29,15,11,18.50
2006,09,29,15,12,18.50
2006,09,29,15,13,18.50
2006,09,29,15,14,18.50
2006,09,29,15,15,18.50
2006,09,29,15,16,18.50
2006,09,29,15,17,18.60
2006,09,29,15,18,18.60
2006,09,29,15,19,18.60
2006,09,29,15,20,18.70
2006,09,29,15,21,18.80
2006,09,29,15,22,18.90
2006,09,29,15,23,19.10
2006,09,29,15,24,19.20
2006,09,29,15,25,19.30
2006,09,29,15,26,19.30
2006,09,29,15,27,19.30
2006,09,29,15,28,19.30
2006,09,29,15,29,19.20
2006,09,29,15,30,19.20
2006,09,29,15,31,19.20
2006,09,29,15,32,19.20
2006,09,29,15,33,19.20
2006,09,29,15,34,19.20
2006,09,29,15,35,19.10
2006,09,29,15,36,19.10
2006,09,29,15,37,19.10
2006,09,29,15,38,19.10
2006,09,29,15,39,19.10
2006,09,29,15,40,18.90
2006,09,29,15,41,18.90
2006,09,29,15,42,18.90
2006,09,29,15,43,18.90
2006,09,29,15,44,18.80
2006,09,29,15,45,18.80
2006,09,29,15,46,18.80
2006,09,29,15,47,18.80
2006,09,29,15,48,18.80
2006,09,29,15,49,18.80
2006,09,29,15,50,18.80
2006,09,29,15,51,18.80
2006,09,29,15,52,18.80
2006,09,29,15,53,18.90
2006,09,29,15,54,18.90
2006,09,29,15,55,18.90
2006,09,29,15,56,18.90
2006,09,29,15,57,19.10
2006,09,29,15,58,19.10
2006,09,29,15,59,19.10
2006,09,29,16,00,19.10
2006,09,29,16,01,19.10
2006,09,29,16,02,19.10
2006,09,29,16,03,19.10
2006,09,29,16,04,19.10
2006,09,29,16,05,19.10
2006,09,29,16,06,19.10
2006,09,29,16,07,19.20
2006,09,29,16,08,19.20
2006,09,29,16,09,19.20
2006,09,29,16,10,19.20
2006,09,29,16,11,19.20
2006,09,29,16,12,19.20
2006,09,29,16,13,19.20
2006,09,29,16,14,19.10
2006,09,29,16,15,19.10
2006,09,29,16,16,19.10
2006,09,29,16,17,19.10
2006,09,29,16,18,19.10
2006,09,29,16,19,19.10
2006,09,29,16,20,19.10
2006,09,29,16,21,19.10
2006,09,29,16,22,19.10
2006,09,29,16,23,19.00
2006,09,29,16,24,18.90
2006,09,29,16,25,18.90
2006,09,29,16,26,18.90
2006,09,29,16,27,18.80
2006,09,29,16,28,18.70
2006,09,29,16,29,18.60
2006,09,29,16,30,18.60
2006,09,29,16,31,18.60
2006,09,29,16,32,18.60
2006,09,29,16,33,18.50
2006,09,29,16,34,18.50
2006,09,29,16,35,18.50
2006,09,29,16,36,18.40
2006,09,29,16,37,18.40
2006,09,29,16,38,18.40
2006,09,29,16,39,18.30
2006,09,29,16,40,18.30
2006,09,29,16,41,18.30
2006,09,29,16,42,18.20
2006,09,29,16,43,18.20
2006,09,29,16,44,18.20
2006,09,29,16,45,18.10
2006,09,29,16,46,18.00
2006,09,29,16,47,17.90
2006,09,29,16,48,17.80
2006,09,29,16,49,17.80
2006,09,29,16,50,17.70
2006,09,29,16,51,17.60
2006,09,29,16,52,17.50
2006,09,29,16,53,17.40
2006,09,29,16,54,17.30
2006,09,29,16,55,17.30
2006,09,29,16,56,17.30
2006,09,29,16,57,17.20
2006,09,29,16,58,17.10
2006,09,29,16,59,17.00
2006,09,29,17,00,17.00
2006,09,29,17,01,16.90
2006,09,29,17,02,16.80
2006,09,29,17,03,16.70
2006,09,29,17,04,16.70
2006,09,29,17,05,16.60
2006,09,29,17,06,16.60
2006,09,29,17,07,16.40
2006,09,29,17,08,16.40
2006,09,29,17,09,16.40
2006,09,29,17,10,16.40
2006,09,29,17,11,16.40
2006,09,29,17,12,16.40
2006,09,29,17,13,16.40
2006,09,29,17,14,16.40
2006,09,29,17,15,16.40
2006,09,29,17,16,16.40
2006,09,29,17,17,16.40
2006,09,29,17,18,16.40
2006,09,29,17,19,16.30
2006,09,29,17,20,16.30
2006,09,29,17,21,16.20
2006,09,29,17,22,16.20